Change the Weather History Date:

Saturday, February 16, 2013

  Actual Average (KGUS) Record (KGUS)
Temperature  
Mean Temperature 20 °F -  
Max Temperature 26 °F 36 °F 59 °F (2006)
Min Temperature 12 °F 24 °F -7 °F (2007)
Degree Days  
Heating Degree Days 44    
Moisture  
Dew Point 12 °F    
Average Humidity 69    
Maximum Humidity 93    
Minimum Humidity 50    
Precipitation  
Precipitation 0.00 in - - ()
Sea Level Pressure  
Sea Level Pressure 30.09 in    
Wind  
Wind Speed 11 mph (NW)    
Max Wind Speed 21 mph    
Max Gust Speed 31 mph    
Visibility 10 miles    
Events      
Averages and records for this station are not official NWS values.
T = Trace of Precipitation, MM = Missing Value Source: NWS Daily Summary

Daily Weather History Graph

Daily Weather History Graph

Search for Another Location

Airport or City:

Trip Planner

Search our weather history database for the weather conditions in past years. The results will help you decide how hot, cold, wet, or windy it might be!

Date:

Astronomy

Feb. 16, 2013 Rise Set
Actual Time 6:36 AM CST 5:20 PM CST
Civil Twilight 6:08 AM CST 5:48 PM CST
Nautical Twilight 5:36 AM CST 6:20 PM CST
Astronomical Twilight 5:04 AM CST 6:52 PM CST
Moon 9:47 AM CST (2/16) No Moon Set
Length of Visible Light 11h 40m
Length of Day
10h 44m
Waxing Crescent, 39% of the Moon is Illuminated
Feb 16
Waxing Crescent
Feb 17
First Quarter
Feb 25
Full
Mar 4
Last Quarter
Mar 11
New

Hourly Weather History & Observations

Time (CST) Temp. Windchill Dew Point Humidity Pressure Visibility Wind Dir Wind Speed Gust Speed Precip Events Conditions
12:15 AM 24.8 °F 20.5 °F 17.6 °F 74% 30.11 in 10.0 mi SSW 3.5 mph - N/A   Clear
12:35 AM 23.0 °F 15.8 °F 21.2 °F 93% 30.11 in 10.0 mi SW 5.8 mph - N/A   Mostly Cloudy
12:55 AM 24.8 °F 16.1 °F 19.4 °F 80% 30.10 in 10.0 mi WNW 8.1 mph - N/A   Overcast
1:15 AM 26.6 °F 18.2 °F 17.6 °F 69% 30.10 in 10.0 mi WNW 8.1 mph - N/A   Overcast
1:35 AM 26.6 °F 17.5 °F 19.4 °F 74% 30.09 in 10.0 mi WNW 9.2 mph - N/A   Overcast
1:55 AM 24.8 °F 12.9 °F 15.8 °F 69% 30.09 in 10.0 mi WNW 13.8 mph - N/A   Mostly Cloudy
2:15 AM 24.8 °F 13.4 °F 17.6 °F 74% 30.09 in 10.0 mi WNW 12.7 mph - N/A   Mostly Cloudy
2:35 AM 23.0 °F 12.4 °F 17.6 °F 80% 30.09 in 10.0 mi WNW 10.4 mph - N/A   Scattered Clouds
2:55 AM 23.0 °F 12.4 °F 17.6 °F 80% 30.08 in 10.0 mi WNW 10.4 mph - N/A   Clear
3:15 AM 23.0 °F 12.4 °F 17.6 °F 80% 30.08 in 10.0 mi WNW 10.4 mph - N/A   Partly Cloudy
3:35 AM 24.8 °F 15.3 °F 19.4 °F 80% 30.08 in 10.0 mi WNW 9.2 mph - N/A   Mostly Cloudy
3:55 AM 23.0 °F 13.1 °F 19.4 °F 86% 30.08 in 10.0 mi WNW 9.2 mph - N/A   Overcast
4:15 AM 23.0 °F 10.1 °F 17.6 °F 80% 30.07 in 10.0 mi WNW 15.0 mph - N/A   Overcast
4:35 AM 23.0 °F 11.7 °F 14.0 °F 68% 30.07 in 10.0 mi WNW 11.5 mph - N/A   Overcast
4:55 AM 23.0 °F 13.9 °F 14.0 °F 68% 30.07 in 10.0 mi WNW 8.1 mph - N/A   Overcast
5:15 AM 23.0 °F 11.1 °F 15.8 °F 74% 30.07 in 10.0 mi WNW 12.7 mph - N/A   Overcast
5:35 AM 21.2 °F 8.9 °F 15.8 °F 80% 30.07 in 10.0 mi WNW 12.7 mph - N/A   Overcast
5:55 AM 21.2 °F 7.8 °F 15.8 °F 80% 30.07 in 10.0 mi WNW 15.0 mph - N/A   Overcast
6:15 AM 21.2 °F 9.5 °F 14.0 °F 74% 30.07 in 10.0 mi WNW 11.5 mph - N/A   Mostly Cloudy
6:35 AM 19.4 °F 4.5 °F 12.2 °F 74% 30.08 in 10.0 mi WNW 17.3 mph - N/A   Mostly Cloudy
6:55 AM 19.4 °F 4.5 °F 12.2 °F 74% 30.08 in 10.0 mi WNW 17.3 mph - N/A   Mostly Cloudy
7:15 AM 19.4 °F 6.0 °F 12.2 °F 74% 30.09 in 10.0 mi WNW 13.8 mph - N/A   Mostly Cloudy
7:35 AM 19.4 °F 6.6 °F 14.0 °F 80% 30.09 in 10.0 mi NW 12.7 mph - N/A   Mostly Cloudy
7:55 AM 19.4 °F 6.6 °F 12.2 °F 74% 30.09 in 9.0 mi NW 12.7 mph - N/A   Overcast
8:15 AM 19.4 °F 6.0 °F 12.2 °F 74% 30.10 in 9.0 mi NW 13.8 mph - N/A   Overcast
8:35 AM 19.4 °F 5.5 °F 14.0 °F 80% 30.10 in 8.0 mi NW 15.0 mph - N/A   Scattered Clouds
8:55 AM 21.2 °F 7.3 °F 12.2 °F 68% 30.10 in 10.0 mi WNW 16.1 mph - N/A   Mostly Cloudy
9:15 AM 21.2 °F 8.9 °F 12.2 °F 68% 30.10 in 6.0 mi NW 12.7 mph - N/A   Mostly Cloudy
9:35 AM 21.2 °F 7.8 °F 12.2 °F 68% 30.10 in 10.0 mi WNW 15.0 mph - N/A   Mostly Cloudy
9:55 AM 21.2 °F 7.3 °F 10.4 °F 63% 30.10 in 10.0 mi WNW 16.1 mph - N/A   Mostly Cloudy
10:15 AM 21.2 °F 7.8 °F 12.2 °F 68% 30.10 in 10.0 mi WNW 15.0 mph 20.7 mph N/A   Overcast
10:35 AM 23.0 °F 10.1 °F 10.4 °F 59% 30.10 in 10.0 mi NW 15.0 mph - N/A   Mostly Cloudy
10:55 AM 21.2 °F 6.8 °F 12.2 °F 68% 30.10 in 10.0 mi NW 17.3 mph 23.0 mph N/A   Mostly Cloudy
11:15 AM 23.0 °F 9.6 °F 10.4 °F 59% 30.09 in 10.0 mi NW 16.1 mph 21.9 mph N/A   Mostly Cloudy
11:35 AM 23.0 °F 8.0 °F 10.4 °F 59% 30.09 in 10.0 mi WNW 20.7 mph - N/A   Overcast
11:55 AM 24.8 °F 12.4 °F 10.4 °F 54% 30.08 in 10.0 mi NW 15.0 mph 24.2 mph N/A   Mostly Cloudy
12:15 PM 23.0 °F 9.6 °F 8.6 °F 54% 30.08 in 10.0 mi WNW 16.1 mph - N/A   Mostly Cloudy
12:35 PM 23.0 °F 10.1 °F 8.6 °F 54% 30.07 in 10.0 mi NW 15.0 mph 23.0 mph N/A   Mostly Cloudy
12:55 PM 23.0 °F 8.7 °F 6.8 °F 50% 30.07 in 10.0 mi WNW 18.4 mph 26.5 mph N/A   Mostly Cloudy
1:15 PM 23.0 °F 8.7 °F 8.6 °F 54% 30.07 in 10.0 mi NW 18.4 mph 23.0 mph N/A   Mostly Cloudy
1:35 PM 23.0 °F 10.6 °F 8.6 °F 54% 30.07 in 10.0 mi NW 13.8 mph 24.2 mph N/A   Overcast
1:55 PM 21.2 °F 6.4 °F 8.6 °F 58% 30.07 in 10.0 mi NNW 18.4 mph - N/A   Mostly Cloudy
2:15 PM 21.2 °F 7.8 °F 6.8 °F 54% 30.07 in 10.0 mi NW 15.0 mph 24.2 mph N/A   Mostly Cloudy
2:35 PM 21.2 °F 7.3 °F 8.6 °F 58% 30.07 in 10.0 mi NNW 16.1 mph 24.2 mph N/A   Mostly Cloudy
2:55 PM 21.2 °F 8.3 °F 6.8 °F 54% 30.07 in 10.0 mi NNW 13.8 mph 25.3 mph N/A   Overcast
3:15 PM 21.2 °F 7.3 °F 6.8 °F 54% 30.08 in 10.0 mi NW 16.1 mph 20.7 mph N/A   Mostly Cloudy
3:35 PM 21.2 °F 8.9 °F 6.8 °F 54% 30.08 in 10.0 mi NNW 12.7 mph 31.1 mph N/A   Overcast
3:55 PM 21.2 °F 9.5 °F 8.6 °F 58% 30.08 in 10.0 mi NNW 11.5 mph - N/A   Overcast
4:15 PM 21.2 °F 7.3 °F 6.8 °F 54% 30.09 in 10.0 mi NW 16.1 mph 20.7 mph N/A   Overcast
4:35 PM 21.2 °F 7.8 °F 6.8 °F 54% 30.08 in 10.0 mi NW 15.0 mph 23.0 mph N/A   Overcast
4:55 PM 21.2 °F 7.8 °F 6.8 °F 54% 30.09 in 10.0 mi NW 15.0 mph - N/A   Overcast
5:15 PM 21.2 °F 6.8 °F 8.6 °F 58% 30.09 in 10.0 mi NNW 17.3 mph 25.3 mph N/A   Overcast
5:35 PM 21.2 °F 10.1 °F 6.8 °F 54% 30.10 in 10.0 mi NW 10.4 mph - N/A   Overcast
5:55 PM 21.2 °F 10.9 °F 6.8 °F 54% 30.10 in 10.0 mi NNW 9.2 mph - N/A   Overcast
6:15 PM 21.2 °F 8.3 °F 5.0 °F 50% 30.10 in 10.0 mi NW 13.8 mph - N/A   Overcast
6:35 PM 21.2 °F 9.5 °F 6.8 °F 54% 30.11 in 10.0 mi NW 11.5 mph - N/A   Overcast
6:55 PM 19.4 °F 7.2 °F 6.8 °F 58% 30.11 in 10.0 mi NW 11.5 mph - N/A   Overcast
7:15 PM 19.4 °F 9.5 °F 8.6 °F 63% 30.11 in 10.0 mi NNW 8.1 mph - N/A   Overcast
7:35 PM 19.4 °F 10.4 °F 10.4 °F 68% 30.11 in 10.0 mi NNE 6.9 mph - N/A   Mostly Cloudy
7:55 PM 19.4 °F 10.4 °F 12.2 °F 74% 30.11 in 10.0 mi North 6.9 mph - N/A   Mostly Cloudy
8:15 PM 19.4 °F 10.4 °F 12.2 °F 74% 30.11 in 4.0 mi North 6.9 mph - N/A   Mostly Cloudy
8:35 PM 17.6 °F 9.3 °F 14.0 °F 86% 30.12 in 8.0 mi North 5.8 mph - N/A   Mostly Cloudy
8:55 PM 19.4 °F 10.4 °F 12.2 °F 74% 30.12 in 7.0 mi North 6.9 mph - N/A   Scattered Clouds
9:15 PM 19.4 °F 10.4 °F 12.2 °F 74% 30.13 in 10.0 mi NNW 6.9 mph - N/A   Scattered Clouds
9:35 PM 19.4 °F 10.4 °F 12.2 °F 74% 30.12 in 10.0 mi NNW 6.9 mph - N/A   Overcast
9:55 PM 19.4 °F 10.4 °F 12.2 °F 74% 30.12 in 10.0 mi North 6.9 mph - N/A   Overcast
10:15 PM 17.6 °F 5.0 °F 12.2 °F 79% 30.13 in 8.0 mi North 11.5 mph - N/A   Overcast
10:35 PM 17.6 °F 6.4 °F 14.0 °F 86% 30.13 in 3.0 mi North 9.2 mph - N/A   Overcast
10:55 PM 17.6 °F 8.2 °F 14.0 °F 86% 30.12 in 5.0 mi North 6.9 mph - N/A   Scattered Clouds
11:15 PM 15.8 °F 7.2 °F 12.2 °F 86% 30.12 in 10.0 mi NNW 5.8 mph - N/A   Clear
11:35 PM 15.8 °F 10.2 °F 10.4 °F 79% 30.12 in 10.0 mi NNW 3.5 mph - N/A   Clear
11:55 PM 12.2 °F 6.1 °F 10.4 °F 92% 30.12 in 10.0 mi NW 3.5 mph - N/A   Clear